Location: Newark
(43.7333°N, 7.4000°E)
Time: 20:25:31
(UTC+00:00)

X-37B - Visible Passes

Search period start: 23 September 2020 00:00
Search period end: 03 October 2020 00:00
Orbit: 386 x 387 km, 45.0° (Epoch: 18 September)

Date Brightness Start Highest point End Pass type
(mag) Time Alt. Az. Time Alt. Az. Time Alt. Az.
23 Sep 1.6 03:23:00 39° SE 03:23:00 39° SE 03:25:11 10° ESE visible
24 Sep 1.7 03:59:50 27° SSW 03:59:53 27° SSW 04:02:38 10° SSE visible
01 Oct 2.7 18:32:52 10° S 18:34:08 15° SSE 18:34:08 15° SSE visible
02 Oct 2.8 19:09:42 10° SW 19:10:54 20° SW 19:10:54 20° SW visible
